• In Spain
  • List of Countries
  • For 7 days
  • Water Temperature
  • Satellite Maps
  • Weather Map
  • Weather Widgets
  • user-avatar
    Login

    Hourly Weather Mendoza

    Today, 17 August, Friday

    Time Temperature Precipitation Wind Pressure Humidity
    00:00 +15°C° 0 mm 2 mps 699 mmHg 28%
    01:00 +15°C° 0 mm 2 mps 698 mmHg 30%
    02:00 +14°C° 0 mm 2 mps 698 mmHg 31%
    03:00 +14°C° 0 mm 2 mps 698 mmHg 33%
    04:00 +13°C° 0 mm 2 mps 698 mmHg 34%
    05:00 +13°C° 0 mm 2 mps 698 mmHg 35%
    06:00 +14°C° 0 mm 2 mps 698 mmHg 35%
    07:00 +14°C° 0 mm 2 mps 698 mmHg 36%
    08:00 +16°C° 0 mm 2 mps 698 mmHg 32%
    09:00 +18°C° 0 mm 2 mps 698 mmHg 28%
    10:00 +20°C° 0 mm 2 mps 698 mmHg 25%
    11:00 +23°C° 0 mm 2 mps 698 mmHg 22%
    12:00 +24°C° 0 mm 2 mps 698 mmHg 20%
    13:00 +25°C° 0 mm 2 mps 697 mmHg 18%
    14:00 +25°C° 0 mm 2 mps 697 mmHg 18%
    15:00 +25°C° 0 mm 2 mps 697 mmHg 17%
    16:00 +25°C° 0 mm 2 mps 697 mmHg 17%
    17:00 +23°C° 0 mm 2 mps 697 mmHg 19%
    18:00 +21°C° 0 mm 3 mps 697 mmHg 21%
    19:00 +19°C° 0 mm 3 mps 697 mmHg 24%
    20:00 +19°C° 0 mm 3 mps 697 mmHg 25%
    21:00 +18°C° 0 mm 3 mps 697 mmHg 26%
    22:00 +18°C° 0 mm 4 mps 697 mmHg 27%
    23:00 +17°C° 0 mm 4 mps 697 mmHg 30%

    Tomorrow, 18 August, Saturday

    Time Temperature Precipitation Wind Pressure Humidity
    00:00 +17°C° 0 mm 4 mps 697 mmHg 33%
    01:00 +15°C° 0 mm 5 mps 697 mmHg 35%
    02:00 +15°C° 0 mm 5 mps 697 mmHg 37%
    03:00 +14°C° 0 mm 5 mps 697 mmHg 38%
    04:00 +14°C° 0 mm 5 mps 697 mmHg 40%
    05:00 +13°C° 0 mm 6 mps 698 mmHg 43%
    06:00 +13°C° 0 mm 6 mps 699 mmHg 46%
    07:00 +12°C° 0 mm 7 mps 700 mmHg 49%
    08:00 +12°C° 0 mm 7 mps 700 mmHg 48%
    09:00 +12°C° 0 mm 7 mps 701 mmHg 46%
    10:00 +14°C° 0 mm 7 mps 702 mmHg 45%
    11:00 +12°C° 0 mm 7 mps 702 mmHg 44%
    12:00 +13°C° 0 mm 6 mps 702 mmHg 42%
    13:00 +11°C° 0 mm 6 mps 702 mmHg 41%
    14:00 +11°C° 0 mm 6 mps 702 mmHg 38%
    15:00 +10°C° 0 mm 5 mps 702 mmHg 36%
    16:00 +10°C° 0 mm 5 mps 702 mmHg 33%
    17:00 +10°C° 0 mm 4 mps 703 mmHg 33%
    18:00 +9°C° 0 mm 3 mps 704 mmHg 33%
    19:00 +7°C° 0 mm 3 mps 705 mmHg 33%
    20:00 +7°C° 0 mm 3 mps 705 mmHg 33%
    21:00 +5°C° 0 mm 3 mps 706 mmHg 34%
    22:00 +4°C° 0 mm 3 mps 706 mmHg 34%
    23:00 +4°C° 0 mm 3 mps 707 mmHg 35%

    Day after tomorrow, 19 August, Sunday

    Time Temperature Precipitation Wind Pressure Humidity
    00:00 +3°C° 0 mm 4 mps 707 mmHg 36%
    01:00 +3°C° 0 mm 4 mps 707 mmHg 37%
    02:00 +3°C° 0 mm 4 mps 707 mmHg 39%
    03:00 +2°C° 0 mm 3 mps 708 mmHg 40%
    04:00 +2°C° 0 mm 3 mps 708 mmHg 42%
    05:00 +2°C° 0 mm 3 mps 708 mmHg 43%
    06:00 +1°C° 0 mm 4 mps 709 mmHg 44%
    07:00 +1°C° 0 mm 4 mps 710 mmHg 45%
    08:00 +4°C° 0 mm 4 mps 710 mmHg 44%
    09:00 +5°C° 0 mm 3 mps 710 mmHg 43%
    10:00 +7°C° 0 mm 3 mps 710 mmHg 42%
    11:00 +8°C° 0 mm 3 mps 709 mmHg 41%
    12:00 +8°C° 0 mm 3 mps 709 mmHg 39%
    13:00 +9°C° 0 mm 3 mps 708 mmHg 38%
    14:00 +9°C° 0 mm 2 mps 708 mmHg 38%
    15:00 +9°C° 0 mm 2 mps 707 mmHg 38%
    16:00 +9°C° 0 mm 2 mps 707 mmHg 39%
    17:00 +8°C° 0 mm 2 mps 708 mmHg 40%
    18:00 +7°C° 0 mm 2 mps 708 mmHg 42%
    19:00 +8°C° 0 mm 1 mps 709 mmHg 44%
    20:00 +7°C° 0 mm 1 mps 709 mmHg 45%
    21:00 +7°C° 0 mm 1 mps 709 mmHg 47%
    22:00 +6°C° 0 mm 1 mps 709 mmHg 48%
    23:00 +6°C° 0 mm 1 mps 709 mmHg 49%

    20 August, Monday

    Time Temperature Precipitation Wind Pressure Humidity
    00:00 +5°C° 0 mm 1 mps 708 mmHg 50%
    01:00 +5°C° 0 mm 1 mps 708 mmHg 51%
    02:00 +4°C° 0 mm 1 mps 707 mmHg 51%
    03:00 +4°C° 0 mm 1 mps 706 mmHg 50%
    04:00 +4°C° 0 mm 1 mps 706 mmHg 50%
    05:00 +4°C° 0 mm 1 mps 706 mmHg 47%
    06:00 +5°C° 0 mm 1 mps 706 mmHg 44%
    07:00 +5°C° 0 mm 1 mps 706 mmHg 41%
    08:00 +6°C° 0 mm 2 mps 705 mmHg 37%
    09:00 +7°C° 0 mm 2 mps 705 mmHg 32%
    10:00 +9°C° 0 mm 3 mps 705 mmHg 28%
    11:00 +10°C° 0 mm 3 mps 704 mmHg 26%
    12:00 +11°C° 0 mm 4 mps 703 mmHg 24%
    13:00 +12°C° 0 mm 4 mps 702 mmHg 23%
    14:00 +12°C° 0 mm 4 mps 702 mmHg 23%
    15:00 +12°C° 0 mm 4 mps 702 mmHg 23%
    16:00 +12°C° 0 mm 4 mps 701 mmHg 23%
    17:00 +11°C° 0 mm 4 mps 701 mmHg 24%
    18:00 +10°C° 0 mm 3 mps 702 mmHg 26%
    19:00 +9°C° 0 mm 3 mps 702 mmHg 27%
    20:00 +9°C° 0 mm 3 mps 702 mmHg 27%
    21:00 +9°C° 0 mm 3 mps 702 mmHg 27%
    22:00 +8°C° 0 mm 2 mps 702 mmHg 26%
    23:00 +8°C° 0 mm 2 mps 701 mmHg 26%

    21 August, Tuesday

    Time Temperature Precipitation Wind Pressure Humidity
    00:00 +7°C° 0 mm 3 mps 701 mmHg 26%
    01:00 +7°C° 0 mm 3 mps 700 mmHg 26%
    02:00 +5°C° 0 mm 3 mps 700 mmHg 26%
    03:00 +5°C° 0 mm 3 mps 700 mmHg 27%
    04:00 +4°C° 0 mm 3 mps 699 mmHg 28%
    05:00 +5°C° 0 mm 3 mps 700 mmHg 28%
    06:00 +5°C° 0 mm 3 mps 700 mmHg 28%
    07:00 +5°C° 0 mm 3 mps 701 mmHg 29%
    08:00 +9°C° 0 mm 3 mps 700 mmHg 26%
    09:00 +11°C° 0 mm 3 mps 700 mmHg 22%
    10:00 +14°C° 0 mm 3 mps 700 mmHg 19%
    11:00 +15°C° 0 mm 4 mps 700 mmHg 18%
    12:00 +17°C° 0 mm 4 mps 700 mmHg 16%
    13:00 +19°C° 0 mm 4 mps 699 mmHg 14%
    14:00 +19°C° 0 mm 4 mps 699 mmHg 14%
    15:00 +19°C° 0 mm 4 mps 699 mmHg 13%
    16:00 +19°C° 0 mm 4 mps 699 mmHg 13%
    17:00 +17°C° 0 mm 3 mps 699 mmHg 15%
    18:00 +16°C° 0 mm 3 mps 699 mmHg 16%
    19:00 +14°C° 0 mm 2 mps 700 mmHg 18%
    20:00 +12°C° 0 mm 3 mps 700 mmHg 19%
    21:00 +12°C° 0 mm 3 mps 699 mmHg 21%
    22:00 +11°C° 0 mm 3 mps 699 mmHg 22%
    23:00 +10°C° 0 mm 3 mps 699 mmHg 24%

    22 August, Wednesday

    Time Temperature Precipitation Wind Pressure Humidity
    00:00 +10°C° 0 mm 3 mps 698 mmHg 25%
    01:00 +9°C° 0 mm 3 mps 698 mmHg 27%
    02:00 +9°C° 0 mm 2 mps 697 mmHg 29%
    03:00 +8°C° 0 mm 2 mps 697 mmHg 31%
    04:00 +8°C° 0 mm 2 mps 696 mmHg 32%
    05:00 +8°C° 0 mm 2 mps 696 mmHg 33%
    06:00 +9°C° 0 mm 2 mps 696 mmHg 34%
    07:00 +9°C° 0 mm 2 mps 696 mmHg 35%
    08:00 +11°C° 0 mm 3 mps 696 mmHg 31%
    09:00 +13°C° 0 mm 4 mps 696 mmHg 28%
    10:00 +15°C° 0 mm 4 mps 696 mmHg 24%
    11:00 +17°C° 0 mm 5 mps 695 mmHg 21%
    12:00 +20°C° 0 mm 5 mps 694 mmHg 17%
    13:00 +22°C° 0 mm 6 mps 693 mmHg 14%
    14:00 +22°C° 0 mm 6 mps 693 mmHg 14%
    15:00 +22°C° 0 mm 6 mps 692 mmHg 14%
    16:00 +22°C° 0 mm 6 mps 692 mmHg 13%
    17:00 +20°C° 0 mm 6 mps 692 mmHg 16%
    18:00 +19°C° 0 mm 5 mps 692 mmHg 19%
    19:00 +16°C° 0 mm 5 mps 692 mmHg 22%
    20:00 +15°C° 0 mm 5 mps 691 mmHg 24%
    21:00 +15°C° 0 mm 5 mps 691 mmHg 26%
    22:00 +14°C° 0 mm 5 mps 691 mmHg 28%
    23:00 +14°C° 0 mm 4 mps 690 mmHg 30%
    Show more